Peru, IL

9:24 PM CDT on April 28, 2017 (GMT -0500)
Illinois Valley Regional-Duncan

Weather History for KVYS - February, 2013

Change the Weather History Date:

Wednesday, February 20, 2013

  Actual Average Record
Temperature  
Mean Temperature 14 °F -  
Max Temperature 21 °F 38 °F 68 °F (2017)
Min Temperature 7 °F 20 °F -2 °F (2015)
Degree Days  
Heating Degree Days 51    
Moisture  
Dew Point 8 °F    
Average Humidity 74    
Maximum Humidity 86    
Minimum Humidity 68    
Precipitation  
Precipitation 0.00 in - - ()
Sea Level Pressure  
Sea Level Pressure 30.34 in    
Wind  
Wind Speed 12 mph (NW)    
Max Wind Speed 17 mph    
Max Gust Speed 25 mph    
Visibility 10 miles    
Events      
Averages and records for this station are not official NWS values.
T = Trace of Precipitation, MM = Missing Value Source: NWS Daily Summary

Daily Weather History Graph

Daily Weather History Graph

Search for Another Location

Airport or City:

Trip Planner

Search our weather history database for the weather conditions in past years. The results will help you decide how hot, cold, wet, or windy it might be!

Date:

Astronomy

Feb. 20, 2013 Rise Set
Actual Time 6:44 AM CST 5:36 PM CST
Civil Twilight 6:16 AM CST 6:05 PM CST
Nautical Twilight 5:43 AM CST 6:37 PM CST
Astronomical Twilight 5:12 AM CST 7:09 PM CST
Moon 12:56 PM CST (2/20) 3:06 AM CST (2/20)
Length of Visible Light 11h 48m
Length of Day
10h 52m
Waxing Gibbous, 76% of the Moon is Illuminated
Feb 20
Waxing Gibbous
Feb 25
Full
Mar 4
Last Quarter
Mar 11
New
Mar 19
First Quarter

Hourly Weather History & Observations

Time (CST) Temp. Windchill Dew Point Humidity Pressure Visibility Wind Dir Wind Speed Gust Speed Precip Events Conditions
12:15 AM 11.1 °F -5.1 °F 3.9 °F 73% 30.25 in 10.0 mi NW 15.0 mph - N/A   Clear
12:35 AM 10.8 °F -6.7 °F 3.2 °F 72% 30.25 in 10.0 mi WNW 17.3 mph 25.3 mph N/A   Clear
12:55 AM 10.4 °F -5.4 °F 3.4 °F 73% 30.26 in 10.0 mi NW 13.8 mph - N/A   Clear
1:15 AM 10.2 °F -6.3 °F 3.2 °F 73% 30.27 in 10.0 mi NW 15.0 mph 23.0 mph N/A   Clear
1:35 AM 9.9 °F -6.7 °F 3.0 °F 74% 30.27 in 10.0 mi WNW 15.0 mph - N/A   Clear
1:55 AM 9.5 °F -5.9 °F 3.0 °F 75% 30.29 in 10.0 mi WNW 12.7 mph 18.4 mph N/A   Clear
2:15 AM 9.1 °F -5.6 °F 3.0 °F 76% 30.29 in 10.0 mi WNW 11.5 mph 16.1 mph N/A   Clear
2:35 AM 8.8 °F -7.5 °F 2.3 °F 75% 30.29 in 10.0 mi WNW 13.8 mph - N/A   Clear
2:55 AM 8.6 °F -9.5 °F 2.3 °F 76% 30.30 in 10.0 mi NW 17.3 mph - N/A   Clear
3:15 AM 8.4 °F -9.2 °F 2.1 °F 76% 30.29 in 10.0 mi NW 16.1 mph - N/A   Clear
3:35 AM 8.2 °F -8.2 °F 2.1 °F 76% 30.30 in 10.0 mi NW 13.8 mph 20.7 mph N/A   Clear
3:55 AM 8.1 °F -9.0 °F 1.8 °F 75% 30.30 in 10.0 mi WNW 15.0 mph 19.6 mph N/A   Clear
4:15 AM 8.1 °F -8.4 °F 1.8 °F 75% 30.30 in 10.0 mi WNW 13.8 mph - N/A   Clear
4:35 AM 8.1 °F -8.4 °F 1.4 °F 74% 30.31 in 10.0 mi NW 13.8 mph 18.4 mph N/A   Clear
4:55 AM 8.1 °F -9.0 °F 1.4 °F 74% 30.30 in 10.0 mi NW 15.0 mph - N/A   Clear
5:15 AM 8.1 °F -6.2 °F 1.4 °F 74% 30.31 in 10.0 mi NW 10.4 mph - N/A   Clear
5:35 AM 8.6 °F -6.3 °F 1.4 °F 73% 30.31 in 10.0 mi WNW 11.5 mph - N/A   Clear
5:55 AM 7.7 °F -6.6 °F 1.4 °F 75% 30.31 in 10.0 mi NW 10.4 mph - N/A   Clear
6:15 AM 7.7 °F -4.8 °F 1.4 °F 75% 30.32 in 10.0 mi NW 8.1 mph - N/A   Clear
6:35 AM 7.7 °F -4.8 °F 1.2 °F 75% 30.33 in 10.0 mi WNW 8.1 mph - N/A   Clear
6:55 AM 7.7 °F -4.8 °F 1.4 °F 75% 30.33 in 10.0 mi WNW 8.1 mph - N/A   Clear
7:15 AM 8.2 °F -6.0 °F 1.4 °F 74% 30.34 in 10.0 mi NW 10.4 mph - N/A   Clear
7:35 AM 8.6 °F -6.3 °F 1.4 °F 73% 30.34 in 10.0 mi WNW 11.5 mph - N/A   Clear
7:55 AM 9.9 °F -4.0 °F 2.1 °F 71% 30.35 in 10.0 mi WNW 10.4 mph - N/A   Clear
8:15 AM 10.8 °F -1.1 °F 2.8 °F 70% 30.36 in 10.0 mi WNW 8.1 mph - N/A   Clear
8:35 AM 11.8 °F -0.7 °F 3.6 °F 69% 30.36 in 10.0 mi WNW 9.2 mph - N/A   Clear
8:55 AM 12.4 °F -0.8 °F 4.1 °F 69% 30.36 in 10.0 mi WNW 10.4 mph - N/A   Clear
9:15 AM 13.3 °F -1.1 °F 5.0 °F 70% 30.36 in 10.0 mi WNW 12.7 mph - N/A   Clear
9:35 AM 14.5 °F 1.9 °F 5.7 °F 68% 30.36 in 10.0 mi WNW 10.4 mph - N/A   Clear
9:55 AM 14.9 °F 1.6 °F 6.3 °F 69% 30.37 in 10.0 mi West 11.5 mph - N/A   Clear
10:15 AM 15.3 °F 4.4 °F 6.3 °F 68% 30.37 in 10.0 mi WNW 8.1 mph - N/A   Clear
10:35 AM 15.8 °F 3.4 °F 6.8 °F 68% 30.37 in 10.0 mi WNW 10.4 mph - N/A   Clear
10:55 AM 16.9 °F 5.5 °F 8.4 °F 69% 30.36 in 10.0 mi WNW 9.2 mph - N/A   Clear
11:15 AM 17.6 °F 5.7 °F 9.3 °F 70% 30.36 in 10.0 mi WNW 10.4 mph - N/A   Clear
11:35 AM 18.1 °F 7.1 °F 9.5 °F 69% 30.35 in 10.0 mi WNW 9.2 mph - N/A   Clear
11:55 AM 19.4 °F 10.4 °F 10.9 °F 70% 30.38 in 10.0 mi WNW 6.9 mph - N/A   Scattered Clouds
12:15 PM 20.1 °F 8.1 °F 11.3 °F 69% 30.38 in 10.0 mi WNW 11.5 mph - N/A   Mostly Cloudy
12:35 PM 19.4 °F 7.2 °F 11.5 °F 71% 30.40 in 10.0 mi WNW 11.5 mph 18.4 mph N/A   Mostly Cloudy
12:55 PM 19.6 °F 6.8 °F 11.7 °F 71% 30.38 in 10.0 mi West 12.7 mph - N/A   Scattered Clouds
1:15 PM 20.5 °F 6.9 °F 12.4 °F 71% 30.38 in 10.0 mi WNW 15.0 mph - N/A   Scattered Clouds
1:35 PM 21.4 °F 8.0 °F 13.5 °F 72% 30.36 in 10.0 mi WNW 15.0 mph - N/A   Scattered Clouds
1:55 PM 21.0 °F 7.6 °F 12.7 °F 70% 30.36 in 10.0 mi NW 15.0 mph - N/A   Clear
2:15 PM 21.2 °F 8.3 °F 12.9 °F 70% 30.35 in 10.0 mi WNW 13.8 mph - N/A   Clear
2:35 PM 21.2 °F 8.9 °F 13.1 °F 71% 30.34 in 10.0 mi WNW 12.7 mph 18.4 mph N/A   Clear
2:55 PM 21.4 °F 9.1 °F 13.5 °F 72% 30.34 in 10.0 mi WNW 12.7 mph - N/A   Scattered Clouds
3:15 PM 21.7 °F 10.8 °F 13.5 °F 70% 30.33 in 10.0 mi WNW 10.4 mph - N/A   Clear
3:35 PM 21.4 °F 9.7 °F 13.1 °F 70% 30.33 in 10.0 mi WNW 11.5 mph - N/A   Clear
3:55 PM 21.7 °F 10.8 °F 13.5 °F 70% 30.33 in 10.0 mi West 10.4 mph - N/A   Clear
4:15 PM 21.7 °F 10.8 °F 13.8 °F 72% 30.34 in 10.0 mi West 10.4 mph - N/A   Clear
4:35 PM 21.7 °F 12.3 °F 14.0 °F 72% 30.34 in 10.0 mi WNW 8.1 mph - N/A   Clear
4:55 PM 21.9 °F 12.5 °F 14.2 °F 72% 30.34 in 10.0 mi WNW 8.1 mph - N/A   Clear
5:15 PM 21.6 °F 14.0 °F 13.8 °F 72% 30.34 in 10.0 mi WNW 5.8 mph - N/A   Clear
5:35 PM 21.2 °F 13.6 °F 13.6 °F 73% 30.34 in 10.0 mi WNW 5.8 mph - N/A   Clear
5:55 PM 21.0 °F 13.4 °F 13.5 °F 73% 30.35 in 10.0 mi West 5.8 mph - N/A   Clear
6:15 PM 20.7 °F 14.2 °F 13.8 °F 75% 30.36 in 10.0 mi WNW 4.6 mph - N/A   Clear
6:35 PM 20.7 °F 11.9 °F 14.0 °F 75% 30.35 in 10.0 mi ENE 6.9 mph - N/A   Clear
6:55 PM 20.3 °F 11.5 °F 14.0 °F 77% 30.35 in 10.0 mi ENE 6.9 mph - N/A   Clear
7:15 PM 20.3 °F 10.6 °F 14.5 °F 78% 30.35 in 10.0 mi NE 8.1 mph - N/A   Clear
7:35 PM 19.8 °F 10.8 °F 13.8 °F 78% 30.34 in 10.0 mi NE 6.9 mph - N/A   Clear
7:55 PM 19.4 °F 10.4 °F 13.6 °F 78% 30.34 in 10.0 mi ENE 6.9 mph - N/A   Clear
8:15 PM 19.4 °F 11.5 °F 14.0 °F 80% 30.35 in 10.0 mi ENE 5.8 mph - N/A   Clear
8:35 PM 18.5 °F 11.7 °F 13.5 °F 81% 30.35 in 10.0 mi ENE 4.6 mph - N/A   Clear
8:55 PM 18.3 °F 11.5 °F 13.3 °F 81% 30.35 in 10.0 mi ENE 4.6 mph - N/A   Clear
9:15 PM 17.6 °F 10.7 °F 14.0 °F 86% 30.35 in 10.0 mi ENE 4.6 mph - N/A   Clear
9:35 PM 18.0 °F 11.1 °F 12.9 °F 81% 30.35 in 10.0 mi ENE 4.6 mph - N/A   Clear
9:55 PM 17.8 °F 12.5 °F 13.1 °F 82% 30.36 in 10.0 mi ENE 3.5 mph - N/A   Clear
10:15 PM 17.6 °F 10.7 °F 14.0 °F 86% 30.36 in 10.0 mi NE 4.6 mph - N/A   Clear
10:35 PM 17.6 °F 10.7 °F 14.0 °F 86% 30.36 in 10.0 mi NE 4.6 mph - N/A   Clear
10:55 PM 17.6 °F 10.7 °F 12.7 °F 81% 30.36 in 10.0 mi NE 4.6 mph - N/A   Clear
11:15 PM 17.6 °F 10.7 °F 12.9 °F 82% 30.36 in 10.0 mi NE 4.6 mph - N/A   Clear
11:35 PM 17.6 °F 10.7 °F 12.9 °F 82% 30.36 in 10.0 mi NE 4.6 mph - N/A   Clear
11:55 PM 17.6 °F - 12.9 °F 82% 30.36 in 10.0 mi Calm Calm - N/A   Clear